Location: Arroyo de Valdeoliva
(40.1604°N, 4.9878°W)
Time: 17:29:19
(UTC+00:00)

Cosmos 1980 Rocket - Pass Details

Date: 11 December 2025
Orbit: 830 x 847 km, 71.0° (Epoch: 15 January)

Event Time Altitude Azimuth Distance (km) Brightness Sun altitude
Rises 18:06:29 0° 193° (SSW) 3,386 5.8 -13.4°
Reaches altitude 10° 18:08:56 10° 191° (S) 2,453 5.0 -13.8°
Maximum altitude 18:14:30 68° 110° (ESE) 906 2.2 -14.8°
Enters shadow 18:19:26 14° 29° (NNE) 2,209 4.0 -15.7°
